Antonio Maceo International Airport
MUCU : rendu visible

Aérodrome :











RETROUVEZ-NOUS SUR...

 
LOGIN :

S'inscrire | Disclaimer

   EN    FR    IT 

 









Légende :    VFR   VFR Marginal   IFR   IFR Intensif   IFR Très Intensif
Visi : 
Plafond : 
>= 8 km
>= 3000ft
5 à 8 km
1000 à 3000 ft
1500m à 5 km
500 à 1000 ft
800 à 1500m
200 à 500 ft
< 800m
< 200 ft
Symboles :   Orages  Brouillard  Fortes neiges  Fortes précipitations  Vent > 20 kt






- Altitude de l'aérodrome : 249 ft
- Code IATA : SCU


MUCU - Antonio Maceo International

DERNIER METAR :
  • 041850Z 13008KT 100V160 9999 SCT020 SCT090 29/23 Q1015

METARs EXPIRÉS :
  • 041750Z 14006KT 100V210 9000 SCT020 SCT090 29/23 Q1015
  • 041650Z 16005KT 130V200 9999 SCT020 SCT090 29/21 Q1016

TAF MUCU
Valide du 04 à 18h jusqu'au 05 à 18h UTC


041700Z 0418/0518 17008KT 9000 SCT020
TEMPO 0418/0424 5000 SHRA SCT018CB BKN020
BECMG 0501/0503 01005KT
BECMG 0515/0517 VRB03KT
FIR MUFH / Amérique du Nord



MET'MAP, la Météo Aéronautique d'un coup d'oeil ! - Copyright ORBIFLY Décembre 2007 - Disclaimer

ORBIFLY MET'MAP TEAM :

Programmation & Développement : Alexandra Zaïnal
Sur une idée originale de : Baudouin d'Aumeries
Assistance à la programmation : Marc-Olivier Méhu
Soutien technique & logistique : Manuel Goepfert

Contact : metmap@orbifly.com




SOURCES & CREDITS :

   NOAA       Earth
Advisory